DateTimeUTC,F1_A11,F1_S11,BsB_S11,BsG_S11,BsR_S11,BbsB_S11,BbsG_S11,BbsR_S11,BaB_A11,BaG_A11,BaR_A11,Tu_S11,T_S11,Uu_S11,U_S11,P_S11,T1_A11
2021-11-16T00:00:00Z,00000200,21000000,,,,,,,0000.17,-000.16,0000.02,20.2,26.9,,00.0,0630.1,31.1
2021-11-16T00:01:00Z,00000200,21000000,,,,,,,0000.14,0000.38,0000.24,20.2,27.0,,00.0,0630.1,31.1
2021-11-16T00:02:00Z,00000200,21000000,,,,,,,0000.13,-000.07,-000.06,20.2,27.0,,00.0,0630.1,31.1
2021-11-16T00:03:00Z,00000200,61000000,,,,,,,-000.01,0000.58,0000.29,20.2,27.0,,00.0,0630.1,31.1
2021-11-16T00:04:00Z,00000200,41000000,-000.29,0000.05,0000.09,0000.20,0000.08,0000.37,0000.06,-000.52,-000.22,20.2,26.8,,00.0,0631.0,31.1
2021-11-16T00:05:00Z,00000200,01000000,0000.70,0000.37,0000.13,-000.54,0000.08,0000.32,0000.21,0000.43,0000.11,20.2,26.7,,00.0,0631.0,31.1
2021-11-16T00:06:00Z,00000200,01000000,-000.34,0000.44,0000.07,0000.15,0000.16,0000.14,0000.04,0000.11,0000.08,20.2,26.7,,00.0,0631.0,31.0
2021-11-16T00:07:00Z,00000200,01000000,0000.31,0000.16,0000.13,-000.29,-000.17,0000.23,0000.44,0000.24,0000.25,20.3,26.7,,00.0,0631.1,31.0
2021-11-16T00:08:00Z,00000200,01000000,0001.32,0000.09,0000.13,-000.50,0000.55,0000.39,-000.14,0000.05,0000.07,20.3,26.7,,00.0,0631.1,31.1
2021-11-16T00:09:00Z,00000200,01000000,0000.85,0000.28,0000.22,-000.54,0000.18,0000.29,0000.40,0000.07,0000.16,20.3,26.7,,00.0,0631.1,31.1
2021-11-16T00:10:00Z,00000200,01000000,-000.11,0000.02,0000.34,0000.30,0000.23,0000.28,0000.04,0000.27,-000.12,20.4,26.7,,00.0,0631.1,31.1
2021-11-16T00:11:00Z,00000200,01000000,0000.60,0000.14,0000.14,-000.58,0000.09,0000.01,0000.43,-000.01,0000.37,20.4,26.7,,00.0,0631.1,31.1
2021-11-16T00:12:00Z,00000200,01000000,0000.75,0000.21,-000.02,0000.10,0000.35,0000.01,0000.04,0000.13,0000.10,20.4,26.7,,00.0,0631.1,31.1
2021-11-16T00:13:00Z,00000200,01000000,0000.02,0000.21,-000.04,0000.04,0000.25,0000.05,-000.56,0000.16,0000.02,20.5,26.8,,00.0,0631.2,31.1
2021-11-16T00:14:00Z,00000200,01000000,-000.09,0000.19,-000.04,-000.11,0000.31,0000.21,0000.42,0000.12,0000.40,20.5,26.8,,00.0,0631.2,31.1
2021-11-16T00:15:00Z,00000200,01000000,0000.42,0000.10,0000.18,0000.32,-000.41,0000.18,0000.19,0000.27,-000.13,20.6,26.8,,00.0,0631.3,31.1
2021-11-16T00:16:00Z,00000200,01000000,0000.32,0000.22,-000.10,-000.10,0000.55,0000.21,-000.07,-000.07,0000.06,20.6,26.8,,00.0,0631.3,31.1
2021-11-16T00:17:00Z,00000200,01000000,0000.25,0000.21,-000.09,-000.14,-000.08,-000.14,0000.22,0000.01,0000.02,20.5,26.8,,00.0,0631.3,31.1
2021-11-16T00:18:00Z,00000200,01000000,-000.68,0000.22,0000.10,0000.21,-000.08,0000.10,0000.20,-000.21,-000.27,20.4,26.8,,00.0,0631.3,31.1
2021-11-16T00:19:00Z,00000200,01000000,0000.68,-000.05,0000.16,0000.34,0000.06,0000.36,-000.03,0000.27,0000.31,20.4,26.7,,00.0,0631.3,31.1
2021-11-16T00:20:00Z,00000200,01000000,0000.08,0000.11,-000.01,-000.12,0000.42,-000.08,0000.13,0000.14,0000.01,20.4,26.7,,00.0,0631.3,31.1
2021-11-16T00:21:00Z,00000200,01000000,-000.13,0000.28,0000.26,-000.23,-000.11,0000.14,0000.36,0000.28,0000.32,20.4,26.7,,00.0,0631.4,31.1
2021-11-16T00:22:00Z,00000200,01000000,0000.91,0000.04,0000.25,0000.19,0000.48,0000.41,-000.09,-000.11,0000.24,20.4,26.7,,00.0,0631.4,31.1
2021-11-16T00:23:00Z,00000200,01000000,0001.38,0000.19,0000.11,0000.34,0000.36,-000.25,0000.29,0000.37,0000.03,20.4,26.7,,00.0,0631.4,31.1
2021-11-16T00:24:00Z,00000200,01000000,0000.36,-000.02,0000.23,0000.47,0000.33,0000.06,-000.14,0000.05,-000.11,20.4,26.7,,00.0,0631.4,31.1
2021-11-16T00:25:00Z,00000200,01000000,0000.83,0000.27,-000.17,-000.74,0000.30,-000.13,0000.35,0000.21,0000.45,20.5,26.8,,00.0,0631.5,31.1
2021-11-16T00:26:00Z,00000200,01000000,0000.60,0000.36,0000.26,0000.21,-000.12,0000.21,0000.10,0000.08,0000.08,20.5,26.8,,00.0,0631.5,31.1
2021-11-16T00:27:00Z,00000200,01000000,0000.10,0000.47,0000.19,0000.37,-000.05,0000.42,0000.47,0000.24,-000.10,20.6,26.8,,00.0,0631.5,31.1
2021-11-16T00:28:00Z,00000200,01000000,0000.44,0000.30,0000.09,-000.17,0000.38,0000.14,-000.29,0000.16,0000.25,20.6,26.8,,00.0,0631.5,31.1
2021-11-16T00:29:00Z,00000200,01000000,0000.04,0000.32,0000.11,-000.04,-000.06,0000.29,0000.52,0000.48,0000.21,20.6,26.8,,00.0,0631.5,31.1
2021-11-16T00:30:00Z,00000200,01000000,0000.38,-000.00,0000.58,-000.28,0000.19,0000.07,-000.13,0000.05,0000.52,20.7,26.9,,00.0,0631.5,31.1
2021-11-16T00:31:00Z,00000200,01000000,0000.61,0000.69,0000.45,-000.58,0000.48,0000.15,0000.03,0000.00,-000.33,20.6,26.9,,00.0,0631.5,31.1
2021-11-16T00:32:00Z,00000200,01000000,-000.42,0000.17,0000.10,-000.24,0000.22,0000.18,0000.62,0000.40,0000.53,20.6,26.9,,00.0,0631.5,31.1
2021-11-16T00:33:00Z,00000200,01000000,-000.19,0000.47,0000.07,-000.44,0000.03,0000.07,0000.11,0000.07,-000.20,20.5,26.8,,00.0,0631.6,31.1
2021-11-16T00:34:00Z,00000200,01000000,0000.67,-000.09,0000.34,-000.37,0000.51,0000.60,0000.39,0000.17,0000.23,20.4,26.8,,00.0,0631.5,31.1
2021-11-16T00:35:00Z,00000200,01000000,-000.29,0000.12,-000.02,-000.38,0000.17,0000.13,0000.08,-000.22,0000.17,20.4,26.8,,00.0,0631.5,31.1
2021-11-16T00:36:00Z,00000200,01000000,0000.03,0000.10,0000.21,-000.23,0000.33,0000.22,0000.51,0000.61,0000.48,20.4,26.8,,00.0,0631.6,31.1
2021-11-16T00:37:00Z,00000200,01000000,0000.73,-000.23,-000.30,-000.20,0000.13,0000.18,0000.20,0000.34,0000.34,20.4,26.8,,00.0,0631.5,31.1
2021-11-16T00:38:00Z,00000200,01000000,-000.20,0000.20,-000.11,-000.13,0000.22,0000.19,0000.06,0000.04,-000.16,20.5,26.8,,00.0,0631.5,31.1
2021-11-16T00:39:00Z,00000200,01000000,0001.06,0000.08,0000.09,-000.56,0000.26,0000.39,0000.37,0000.74,0000.43,20.5,26.8,,00.0,0631.6,31.1
2021-11-16T00:40:00Z,00000200,01000000,0000.81,-000.04,0000.19,-000.12,-000.04,0000.47,0000.20,0000.17,0000.37,20.6,26.8,,00.0,0631.6,31.1
2021-11-16T00:41:00Z,00000200,01000000,0000.65,-000.06,-000.06,-000.09,0000.16,0000.45,0000.21,0000.08,0000.03,20.6,26.8,,00.0,0631.6,31.1
2021-11-16T00:42:00Z,00000200,01000000,-000.38,0000.26,0000.15,-000.52,0000.16,0000.09,0000.35,0000.62,0000.66,20.6,26.8,,00.0,0631.7,31.1
2021-11-16T00:43:00Z,00000200,01000000,0000.07,-000.01,0000.21,0000.26,0000.08,0000.19,-000.12,-000.27,-000.62,20.7,26.8,,00.0,0631.7,31.1
2021-11-16T00:44:00Z,00000200,01000000,0000.33,-000.20,0000.38,-000.42,0000.09,0000.34,0000.20,0000.11,0000.45,20.6,26.9,,00.0,0631.7,31.1
2021-11-16T00:45:00Z,00000200,01000000,0000.15,0000.24,0000.15,-000.59,0000.15,0000.23,0000.26,0000.25,0000.25,20.6,26.9,,00.0,0631.7,31.1
2021-11-16T00:46:00Z,00000200,01000000,0000.52,0000.11,0000.21,-000.34,0000.05,0000.43,0000.12,-000.09,-000.03,20.5,26.8,,00.0,0631.6,31.1
2021-11-16T00:47:00Z,00000200,01000000,0000.91,-000.11,0000.13,0000.56,0000.01,0000.66,0000.33,0000.62,0000.41,20.4,26.8,,00.0,0631.6,31.0
2021-11-16T00:48:00Z,00000200,01000000,0000.76,-000.01,0000.36,-000.74,0000.30,0000.38,0000.08,-000.28,-000.09,20.3,26.8,,00.0,0631.5,31.0
2021-11-16T00:49:00Z,00000200,01000000,0000.40,0000.25,0000.23,0000.18,0000.39,0000.26,0000.32,0000.18,0000.51,20.3,26.7,,00.0,0631.5,31.0
2021-11-16T00:50:00Z,00000200,01000000,0000.73,0000.02,-000.10,0000.19,0000.25,0000.18,0000.22,0000.49,-000.25,20.3,26.7,,00.0,0631.4,31.0
2021-11-16T00:51:00Z,00000200,01000000,0000.75,0000.00,0000.50,-000.01,0000.27,0000.33,0000.12,0000.57,0000.81,20.3,26.7,,00.0,0631.4,31.0
2021-11-16T00:52:00Z,00000200,01000000,-000.09,0000.12,-000.01,0000.26,0000.57,0000.58,0000.54,0000.57,0000.03,20.3,26.7,,00.0,0631.4,31.0
2021-11-16T00:53:00Z,00000200,01000000,0000.49,0000.21,-000.10,-000.43,-000.18,-000.05,0000.32,0000.09,0000.44,20.4,26.7,,00.0,0631.4,31.1
2021-11-16T00:54:00Z,00000200,01000000,0000.76,0000.04,0000.11,0000.65,0000.53,0000.32,0000.55,0000.40,0000.23,20.4,26.7,,00.0,0631.4,31.1
2021-11-16T00:55:00Z,00000200,01000000,0000.13,0000.23,0000.33,-000.58,0000.42,0000.16,-000.19,-000.07,0000.43,20.5,26.7,,00.0,0631.4,31.1
2021-11-16T00:56:00Z,00000200,01000000,0000.58,0000.48,0000.13,0000.14,0000.35,0000.03,0000.50,0000.55,0000.23,20.5,26.7,,00.0,0631.4,31.1
2021-11-16T00:57:00Z,00000200,41000000,,,,,,,-000.65,-000.83,-001.25,20.6,26.8,,00.0,0631.4,31.1
2021-11-16T00:58:00Z,00000200,61000000,,,,,,,0000.16,0000.22,0000.71,20.3,26.8,,00.0,0630.6,31.1
2021-11-16T00:59:00Z,00000200,21000000,,,,,,,0000.51,0000.84,0000.58,20.3,26.9,,00.0,0630.6,31.1
